User: anonymous   Login
Location: Koussan�
(15.2012°N, 12.5548°W)
Time: 03:10:35
(UTC+00:00)
Language:

Cosmos 1244 Rocket - Orbit

View from above orbital plane
View from above orbital plane
View from above satellite
View from above satellite

Ground track
Ground track

The orbit data is extracted from the following two-line orbital elements,

1 12298U 81013B   21015.53454741  .00000006  00000-0 -95522-5 0  9992
2 12298  82.9478  77.8164 0029752 187.5456 283.2533 13.76642912  4995
Epoch (UTC): 15 January 2021 12:49:44
Eccentricity: 0.0029752
inclination: 82.9478°
perigee height: 954 km
apogee height: 997 km
right ascension of ascending node: 77.8164°
argument of perigee: 187.5456°
revolutions per day: 13.76642912
mean anomaly at epoch: 283.2533°
orbit number at epoch: 499

The dashed part of the orbit path shows where the satellite is in the earth's shadow,  

DLR